Weather History for Prague, Czech Republic

Change the Weather History Date:

Tuesday, February 5, 2013

  Actual Average Record
Temperature  
Mean Temperature 39 °F -  
Max Temperature 45 °F 38 °F 55 °F (2002)
Min Temperature 33 °F 25 °F 3 °F (2006)
Degree Days  
Heating Degree Days 26    
Moisture  
Dew Point 32 °F    
Average Humidity 80    
Maximum Humidity 93    
Minimum Humidity 57    
Precipitation  
Precipitation 0.00 in 0.03 in - ()
Sea Level Pressure  
Sea Level Pressure 29.58 in    
Wind  
Wind Speed 13 mph ()    
Max Wind Speed 23 mph    
Max Gust Speed 34 mph    
Visibility 6.8 miles    
Events Rain    
Averages and records for this station are not official NWS values.
T = Trace of Precipitation, MM = Missing Value Source: Averaged Metar Reports

Daily Weather History Graph

Daily Weather History Graph

Search for Another Location

Airport:

Trip Planner

Search our weather history database for the weather conditions in past years. The results will help you decide how hot, cold, wet, or windy it might be!

Date:

Astronomy

Feb. 05, 2013 Rise Set
Actual Time 7:30 AM CET 5:03 PM CET
Civil Twilight 6:56 AM CET 5:38 PM CET
Nautical Twilight 6:17 AM CET 6:17 PM CET
Astronomical Twilight 5:39 AM CET 6:54 PM CET
Moon 3:04 AM CET (2/5) 11:53 AM CET (2/5)
Length of Visible Light 10h 42m
Length of Day
9h 33m
Waning Crescent, 29% of the Moon is Illuminated
Feb 5
Waning Crescent
Feb 10
New
Feb 17
First Quarter
Feb 25
Full
Mar 4
Last Quarter

Hourly Weather History & Observations

Time (CET) Temp. Windchill Dew Point Humidity Pressure Visibility Wind Dir Wind Speed Gust Speed Precip Events Conditions
12:00 AM 39.2 °F 31.2 °F 35.6 °F 87% 29.77 in 6.2 mi SW 13.8 mph - N/A   Overcast
12:30 AM 37.4 °F 29.3 °F 35.6 °F 93% 29.77 in - SSW 12.7 mph - N/A   Clear
1:00 AM 38 °F - 35 °F 86% 29.82 in 19 mi WSW 13.4 mph - -   Partly Cloudy
1:00 AM 39.2 °F 30.5 °F 35.6 °F 87% 29.77 in 6.2 mi SW 16.1 mph - N/A   Mostly Cloudy
1:30 AM 37.4 °F 27.8 °F 33.8 °F 87% 29.77 in 6.2 mi SW 17.3 mph - N/A   Mostly Cloudy
2:00 AM 37.4 °F 28.2 °F 33.8 °F 87% 29.77 in 6.2 mi SW 16.1 mph - N/A   Mostly Cloudy
2:30 AM 37.4 °F 29.8 °F 33.8 °F 87% 29.77 in 6.2 mi SSW 11.5 mph - N/A   Partly Cloudy
3:00 AM 37.4 °F 28.5 °F 35.6 °F 93% 29.74 in - SSW 15.0 mph - N/A   Clear
3:30 AM 37.4 °F 29.8 °F 33.8 °F 87% 29.74 in - SSW 11.5 mph - N/A   Clear
4:00 AM 37.4 °F 29.3 °F 35.6 °F 93% 29.71 in 6.2 mi SSW 12.7 mph - N/A   Scattered Clouds
4:30 AM 37.4 °F 28.9 °F 33.8 °F 87% 29.71 in - SW 13.8 mph - N/A   Clear
5:00 AM 37.4 °F 27.8 °F 33.8 °F 87% 29.71 in - SW 17.3 mph - N/A   Clear
5:30 AM 37.4 °F 27.5 °F 33.8 °F 87% 29.68 in - SSW 18.4 mph - N/A   Clear
6:00 AM 37.4 °F 28.2 °F 33.8 °F 87% 29.68 in 6.2 mi SSW 16.1 mph - N/A   Scattered Clouds
6:30 AM 37.4 °F 29.8 °F 32.0 °F 81% 29.65 in 6.2 mi SSW 11.5 mph - N/A   Partly Cloudy
7:00 AM 36 °F - 33 °F 83% 29.71 in 19 mi SSW 8.9 mph - -   Overcast
7:00 AM 35.6 °F 29.2 °F 32.0 °F 87% 29.65 in 6.2 mi SSW 8.1 mph - N/A   Overcast
7:30 AM 37.4 °F 29.8 °F 33.8 °F 87% 29.65 in 6.2 mi SSW 11.5 mph - N/A   Overcast
8:00 AM 37.4 °F 30.8 °F 33.8 °F 87% 29.62 in 6.2 mi SSW 9.2 mph - N/A   Mostly Cloudy
8:30 AM 37.4 °F 30.8 °F 33.8 °F 87% 29.62 in 6.2 mi South 9.2 mph - N/A   Mostly Cloudy
9:00 AM 37.4 °F 30.3 °F 33.8 °F 87% 29.62 in 6.2 mi SSW 10.4 mph - N/A   Overcast
9:30 AM 39.2 °F 31.2 °F 33.8 °F 81% 29.62 in 6.2 mi SW 13.8 mph - N/A   Mostly Cloudy
10:00 AM 39.2 °F 31.2 °F 33.8 °F 81% 29.59 in 6.2 mi SW 13.8 mph - N/A   Scattered Clouds
10:30 AM 39.2 °F 32.5 °F 32.0 °F 75% 29.59 in 6.2 mi SSW 10.4 mph - N/A   Scattered Clouds
11:00 AM 39.2 °F 32.0 °F 32.0 °F 75% 29.59 in 6.2 mi SSW 11.5 mph - N/A   Mostly Cloudy
11:30 AM 41.0 °F 35.2 °F 33.8 °F 76% 29.56 in 6.2 mi SSW 9.2 mph - N/A   Scattered Clouds
12:00 PM 41.0 °F 32.5 °F 32.0 °F 70% 29.56 in 6.2 mi SW 17.3 mph - N/A   Scattered Clouds
12:30 PM 42.8 °F 34.3 °F 32.0 °F 66% 29.53 in 6.2 mi SW 19.6 mph - N/A   Scattered Clouds
1:00 PM 41.0 °F 31.6 °F 32.0 °F 70% 29.53 in 6.2 mi SW 20.7 mph - N/A   Scattered Clouds
1:30 PM 42.8 °F 34.5 °F 32.0 °F 66% 29.50 in 6.2 mi SSW 18.4 mph - N/A   Scattered Clouds
2:00 PM 42.8 °F 34.3 °F 30.2 °F 61% 29.50 in 6.2 mi SW 19.6 mph - N/A   Mostly Cloudy
2:30 PM 44.6 °F 36.6 °F 32.0 °F 61% 29.47 in 6.2 mi SW 19.6 mph - N/A   Scattered Clouds
3:00 PM 44.6 °F 36.1 °F 30.2 °F 57% 29.47 in 6.2 mi SW 21.9 mph 33.4 mph N/A   Scattered Clouds
3:30 PM 42.8 °F 34.5 °F 32.0 °F 66% 29.44 in 6.2 mi SW 18.4 mph - N/A   Scattered Clouds
4:00 PM 41.0 °F 31.6 °F 32.0 °F 70% 29.44 in 6.2 mi SW 20.7 mph - N/A   Scattered Clouds
4:09 PM 41.0 °F 31.6 °F 32.0 °F 70% 29.44 in 6.2 mi SW 20.7 mph 33.4 mph N/A   Scattered Clouds
4:30 PM 39.2 °F 28.7 °F 30.2 °F 70% 29.44 in 6.2 mi WSW 23.0 mph 34.5 mph N/A   Partly Cloudy
5:00 PM 39.2 °F 29.0 °F 30.2 °F 70% 29.44 in 6.2 mi SW 21.9 mph - N/A   Partly Cloudy
5:30 PM 37.4 °F 26.9 °F 30.2 °F 75% 29.47 in 6.2 mi WSW 20.7 mph - N/A   Partly Cloudy
6:00 PM 37.4 °F 27.5 °F 30.2 °F 75% 29.47 in 6.2 mi WSW 18.4 mph - N/A   Mostly Cloudy
6:30 PM 37.4 °F 28.9 °F 30.2 °F 75% 29.47 in 6.2 mi WSW 13.8 mph - N/A   Mostly Cloudy
7:00 PM 37 °F - 30 °F 67% 29.55 in 37 mi West 13.4 mph - -   Mostly Cloudy
7:00 PM 37.4 °F 28.9 °F 30.2 °F 75% 29.47 in 6.2 mi WSW 13.8 mph - N/A   Mostly Cloudy
7:07 PM 35.6 °F 27.1 °F 30.2 °F 81% 29.50 in 6.2 mi West 12.7 mph - N/A Rain Light Rain
7:21 PM 35.6 °F 28.6 °F 30.2 °F 81% 29.47 in 6.2 mi WSW 9.2 mph - N/A   Mostly Cloudy
7:30 PM 35.6 °F 28.6 °F 30.2 °F 81% 29.47 in 6.2 mi WSW 9.2 mph - N/A   Mostly Cloudy
8:00 PM 33.8 °F 25.8 °F 30.2 °F 87% 29.47 in 6.2 mi WSW 10.4 mph - N/A Rain Light Rain
8:30 PM 33.8 °F 24.3 °F 30.2 °F 87% 29.47 in 6.2 mi WSW 13.8 mph - N/A   Scattered Clouds
9:00 PM 33.8 °F 26.4 °F 30.2 °F 87% 29.47 in 6.2 mi WSW 9.2 mph - N/A   Scattered Clouds
9:30 PM 33.8 °F 28.6 °F 30.2 °F 87% 29.47 in 6.2 mi SW 5.8 mph - N/A   Mostly Cloudy
10:00 PM 33.8 °F 29.6 °F 30.2 °F 87% 29.47 in 6.2 mi South 4.6 mph - N/A   Overcast
10:30 PM 33.8 °F 26.4 °F 30.2 °F 87% 29.47 in - SSW 9.2 mph - N/A   Clear
11:00 PM 33.8 °F 25.3 °F 28.4 °F 81% 29.47 in 6.2 mi SSW 11.5 mph - N/A   Partly Cloudy
11:30 PM 33.8 °F 25.3 °F 28.4 °F 81% 29.47 in 6.2 mi SSW 11.5 mph - N/A   Scattered Clouds